Retour au catalogue

SL-8 R/B

ActifLEO
NORAD 7284·ROCKET BODY·🇷🇺 Russia

Lancé Apr 29, 1974 depuis Plesetsk Cosmodrome

Loading…

Prochains Passages (prochaines 24 heures)

TLE

FraisSource: Space-Track

Époque: Sep 14, 2026, 15:32 UTC

1 07284U 74028B   26257.64734493 -.00000017  00000-0 -18999-5 0  9995
2 07284  74.0420 331.1708 0016468 159.4369   8.1767 12.71534306431183

Suivez SL-8 R/B en temps réel avec AllMySat

Download on the App Store